Location: ??????
(55.6130°N, 37.7882°E)
Time: 14:12:11
(UTC+00:00)

GP-B - Pass Details

Date: 14 April 2024
Orbit: 624 x 629 km, 89.8° (Epoch: 17 May)

Event Time Altitude Azimuth Distance (km) Brightness Sun altitude
Rises 00:33:01 0° 359° (N) 2,936 7.2 -14.5°
Reaches altitude 10° 00:35:15 10° 356° (N) 2,022 6.2 -14.3°
Maximum altitude 00:39:39 66° 275° (W) 694 3.1 -13.8°
Enters shadow 00:43:08 16° 196° (SSW) 1,650 4.7 -13.4°
